This demonstration page uses our WeatherBlox Daily Observations layout. Learn more.

38.89511, -77.03637

Hourly Observations for July 19, 2019

Temp ( °F °C ) Dew Point ( °F °C ) Humidity (%) Winds ( mph kmh ) Pressure ( in mb ) Visibility ( mi km ) Precip ( " mm )
12:52 am 00:52 Mostly Clear 82 27.8 75 23.9 79 79 SSW 6 9 29.88 1012 10 16.09344 0 0
1:52 am 01:52 Clear 81 27.2 75 23.9 82 82 SW 3 6 29.88 1012 10 16.09344 0 0
2:52 am 02:52 Clear 81 27.2 76 24.4 85 85 SSW 6 9 29.88 1012 10 16.09344 0 0
3:52 am 03:52 Clear 80 26.7 75 23.9 85 85 SW 3 6 29.88 1012 10 16.09344 0 0
4:52 am 04:52 Clear 79 26.1 75 23.9 88 88 Calm 29.88 1012 10 16.09344 0 0
5:52 am 05:52 Mostly Clear 80 26.7 73 22.8 79 79 Calm 29.91 1013 10 16.09344 0 0
6:52 am 06:52 Mostly Sunny 81 27.2 71 21.7 72 72 NW 7 11 29.91 1013 10 16.09344 0 0
7:52 am 07:52 Mostly Sunny 84 28.9 73 22.8 70 70 NNW 6 9 29.91 1013 10 16.09344 0 0
8:52 am 08:52 Mostly Sunny 87 30.6 72 22.2 61 61 NNW 10 17 29.94 1014 10 16.09344 0 0
9:52 am 09:52 Sunny 89 31.7 72 22.2 57 57 NNW 9 15 29.94 1014 10 16.09344 0 0
10:52 am 10:52 Mostly Sunny 90 32.2 74 23.3 59 59 NNW 10 17 29.94 1014 10 16.09344 0 0
11:52 am 11:52 Mostly Sunny 92 33.3 75 23.9 58 58 NNE 9 15 29.94 1014 10 16.09344 0 0
12:52 pm 12:52 Mostly Sunny 93 33.9 74 23.3 54 54 N 12 19 29.94 1014 10 16.09344 0 0
1:52 pm 13:52 Partly Cloudy 95 35 74 23.3 51 51 NE 5 7 29.94 1014 10 16.09344 0 0
2:52 pm 14:52 Partly Cloudy 93 33.9 76 24.4 58 58 S 13 20 29.91 1013 10 16.09344 0 0
3:52 pm 15:52 Partly Cloudy 93 33.9 75 23.9 56 56 SSW 13 20 29.91 1013 10 16.09344 0 0
4:52 pm 16:52 Partly Cloudy 95 35 72 22.2 47 47 SSW 14 22 29.88 1012 10 16.09344 0 0
5:52 pm 17:52 Mostly Sunny 95 35 73 22.8 49 49 SSW 13 20 29.88 1012 10 16.09344 0 0
6:52 pm 18:52 Mostly Sunny 94 34.4 72 22.2 49 49 SSW 12 19 29.88 1012 10 16.09344 0 0
7:52 pm 19:52 Mostly Sunny 92 33.3 72 22.2 52 52 SW 9 15 29.88 1012 10 16.09344 0 0
8:52 pm 20:52 Mostly Clear 91 32.8 71 21.7 52 52 SW 7 11 29.88 1012 10 16.09344 0 0
9:52 pm 21:52 Mostly Clear 89 31.7 72 22.2 57 57 SSW 5 7 29.91 1013 10 16.09344 0 0
10:52 pm 22:52 Partly Cloudy 87 30.6 77 25 72 72 Calm 29.91 1013 10 16.09344 0 0
11:52 pm 23:52 Partly Cloudy 86 30 73 22.8 65 65 S 7 11 29.88 1012 10 16.09344 0 0

Powered by AerisWeather